Location: Bats
(43.6587°N, 0.4584°W)
Time: 09:26:17
(UTC+00:00)

Cosmos 676 Rocket - Pass Details

Date: 12 January 2026
Orbit: 750 x 779 km, 74.0° (Epoch: 10 February)

Event Time Altitude Azimuth Distance (km) Brightness Sun altitude
Rises 17:14:11 0° 346° (NNW) 3,213 7.1 -5.2°
Reaches altitude 10° 17:16:43 10° 354° (N) 2,287 6.3 -5.6°
Maximum altitude 17:21:31 37° 62° (ENE) 1,161 4.5 -6.4°
Drops below altitude 10° 17:26:19 10° 130° (SE) 2,289 6.2 -7.2°
Sets 17:28:51 0° 138° (SE) 3,215 7.0 -7.6°
